DateTimeUTC,F1_A11,F1_S11,BsB_S11,BsG_S11,BsR_S11,BbsB_S11,BbsG_S11,BbsR_S11,BaB_A11,BaG_A11,BaR_A11,Tu_S11,T_S11,Uu_S11,U_S11,P_S11,T1_A11
2021-07-05T22:00:00Z,00000200,20000000,,,,,,,-000.23,0000.36,0000.46,20.1,26.9,05.9,03.9,0664.1,31.3
2021-07-05T22:01:00Z,00000200,20000000,,,,,,,0000.28,-000.54,0000.16,20.0,26.9,05.9,03.9,0664.1,31.3
2021-07-05T22:02:00Z,00000200,20000000,,,,,,,0000.24,0000.69,0000.12,20.0,26.9,05.9,03.9,0664.1,31.3
2021-07-05T22:03:00Z,00000200,60000000,,,,,,,0000.21,-000.19,-000.15,20.0,26.9,05.9,03.9,0664.1,31.2
2021-07-05T22:04:00Z,00000200,40000000,0000.56,0000.34,-000.11,0000.48,0000.15,0000.10,0000.40,0000.37,0000.19,20.1,26.7,06.2,04.2,0665.0,31.3
2021-07-05T22:05:00Z,00000200,00000000,0000.31,0000.18,-000.23,-000.05,0000.25,0000.03,-000.52,-000.16,-000.10,20.2,26.6,06.2,04.2,0665.1,31.3
2021-07-05T22:06:00Z,00000200,00000000,0000.18,0000.07,0000.22,-000.34,0000.09,-000.05,-000.04,-000.16,0000.22,20.2,26.6,06.2,04.2,0665.1,31.3
2021-07-05T22:07:00Z,00000200,00000000,0000.56,0000.07,-000.17,0000.00,0000.21,0000.39,-000.01,-000.04,-000.43,20.2,26.6,06.3,04.3,0665.1,31.2
2021-07-05T22:08:00Z,00000200,00000000,0000.39,0000.16,-000.43,0000.74,0000.13,-000.09,0000.33,0000.38,0000.26,20.2,26.6,06.2,04.2,0665.1,31.2
2021-07-05T22:09:00Z,00000200,00000000,0000.20,0000.20,-000.02,-000.27,-000.08,-000.12,0000.32,-000.17,0000.31,20.2,26.6,06.3,04.3,0665.1,31.2
2021-07-05T22:10:00Z,00000200,00000000,0000.16,0000.16,0000.15,0000.51,0000.24,0000.16,-000.31,-000.02,0000.07,20.2,26.6,06.4,04.4,0665.1,31.3
2021-07-05T22:11:00Z,00000200,00000000,0000.46,0000.16,-000.19,0000.32,0000.04,-000.14,0000.27,-000.03,-000.15,20.2,26.6,06.3,04.3,0665.1,31.3
2021-07-05T22:12:00Z,00000200,00000000,0000.38,0000.13,-000.01,0000.85,0000.11,0000.13,-000.04,0000.16,0000.06,20.2,26.6,06.3,04.3,0665.1,31.3
2021-07-05T22:13:00Z,00000200,00000000,0000.39,-000.11,0000.28,0000.38,0000.05,0000.23,-000.33,0000.07,-000.20,20.2,26.6,06.2,04.2,0665.1,31.3
2021-07-05T22:14:00Z,00000200,00000000,0000.61,0000.04,0000.04,0000.42,-000.12,-000.03,-000.26,-000.57,-000.21,20.2,26.5,06.1,04.2,0665.1,31.3
2021-07-05T22:15:00Z,00000200,00000000,0000.79,-000.07,-000.10,0000.12,0000.15,0000.30,0000.19,0000.45,0000.30,20.2,26.5,06.1,04.2,0665.1,31.3
2021-07-05T22:16:00Z,00000200,00000000,0000.33,0000.24,0000.27,0000.51,0000.12,-000.01,0000.06,-000.05,0000.24,20.2,26.5,06.1,04.2,0665.1,31.3
2021-07-05T22:17:00Z,00000200,00000000,0000.15,-000.17,-000.14,0000.37,-000.11,-000.08,0000.51,0000.08,-000.06,20.2,26.5,06.4,04.3,0665.1,31.2
2021-07-05T22:18:00Z,00000200,00000000,0000.59,-000.14,-000.18,0000.36,0000.07,0000.03,-000.40,0000.21,-000.18,20.2,26.5,06.3,04.3,0665.1,31.3
2021-07-05T22:19:00Z,00000200,00000000,0001.59,0000.03,-000.14,0000.39,0000.24,0000.07,0000.27,0000.02,0000.13,20.2,26.5,06.5,04.4,0665.1,31.2
2021-07-05T22:20:00Z,00000200,00000000,0000.74,0000.20,0000.11,-000.02,0000.05,0000.18,-000.09,0000.03,-000.11,20.2,26.5,06.5,04.4,0665.1,31.2
2021-07-05T22:21:00Z,00000200,00000000,0000.63,0000.15,-000.31,0000.28,0000.09,0000.15,0000.28,-000.03,0000.05,20.1,26.5,06.4,04.3,0665.1,31.2
2021-07-05T22:22:00Z,00000200,00000000,0000.59,0000.12,-000.03,0000.41,0000.06,-000.02,-000.43,-000.34,-000.02,20.2,26.5,06.3,04.3,0665.1,31.2
2021-07-05T22:23:00Z,00000200,00000000,0000.85,0000.28,0000.13,0000.34,-000.04,-000.08,-000.09,0000.20,0000.08,20.1,26.5,06.2,04.2,0665.0,31.2
2021-07-05T22:24:00Z,00000200,00000000,0000.43,0000.00,-000.26,-000.13,-000.29,-000.11,0000.40,-000.03,-000.38,20.2,26.5,06.3,04.3,0665.1,31.2
2021-07-05T22:25:00Z,00000200,00000000,0000.50,0000.07,-000.37,0000.37,0000.02,-000.30,0000.02,-000.06,0000.42,20.1,26.5,06.3,04.3,0665.1,31.2
2021-07-05T22:26:00Z,00000200,00000000,0000.40,0000.36,-000.26,0000.24,-000.05,0000.00,-000.16,-000.18,-000.18,20.1,26.5,06.3,04.3,0665.1,31.2
2021-07-05T22:27:00Z,00000200,00000000,0000.71,0000.31,-000.26,0000.86,-000.06,0000.02,-000.00,0000.44,0000.21,20.1,26.5,06.4,04.4,0665.1,31.2
2021-07-05T22:28:00Z,00000200,00000000,0000.65,-000.08,0000.16,0000.87,-000.24,-000.03,0000.02,-000.28,-000.06,20.1,26.5,06.5,04.4,0665.1,31.3
2021-07-05T22:29:00Z,00000200,00000000,0000.97,0000.11,0000.12,0000.01,0000.02,-000.03,0000.24,0000.04,-000.22,20.1,26.4,06.4,04.4,0665.0,31.2
2021-07-05T22:30:00Z,00000200,00000000,0000.33,0000.07,0000.14,-000.06,0000.23,0000.08,-000.29,-000.24,-000.21,20.1,26.4,06.3,04.3,0665.0,31.3
2021-07-05T22:31:00Z,00000200,00000000,-000.19,0000.24,-000.05,0000.54,0000.04,0000.02,0000.21,0000.29,0000.30,20.1,26.4,06.4,04.4,0665.0,31.2
2021-07-05T22:32:00Z,00000200,00000000,0000.18,-000.05,-000.21,0000.02,-000.07,0000.06,-000.03,0000.14,0000.17,20.1,26.4,06.4,04.4,0665.0,31.2
2021-07-05T22:33:00Z,00000200,00000000,-000.39,0000.02,-000.18,0000.52,-000.09,0000.02,-000.15,-000.04,-000.31,20.1,26.4,06.4,04.4,0665.0,31.2
2021-07-05T22:34:00Z,00000200,00000000,0000.52,0000.17,-000.06,0000.46,0000.11,-000.10,0000.19,0000.16,0000.20,20.1,26.4,06.5,04.4,0665.0,31.3
2021-07-05T22:35:00Z,00000200,00000000,0000.89,0000.26,-000.13,-000.16,-000.01,0000.12,0000.00,-000.10,0000.01,20.1,26.4,06.6,04.5,0665.0,31.3
2021-07-05T22:36:00Z,00000200,00000000,0000.52,-000.11,0000.10,0000.52,0000.11,0000.18,0000.15,-000.07,0000.00,20.1,26.4,06.6,04.5,0665.0,31.2
2021-07-05T22:37:00Z,00000200,00000000,0000.38,0000.24,0000.04,-000.34,0000.36,0000.01,0000.33,0000.58,0000.31,20.1,26.4,06.6,04.5,0665.0,31.2
2021-07-05T22:38:00Z,00000200,00000000,0000.70,-000.10,-000.17,0000.67,0000.07,-000.49,-000.35,-000.14,-000.32,20.1,26.4,06.6,04.5,0665.0,31.2
2021-07-05T22:39:00Z,00000200,00000000,0000.40,0000.28,-000.39,-000.16,0000.10,-000.08,0000.10,-000.30,-000.06,20.1,26.4,06.5,04.4,0665.0,31.2
2021-07-05T22:40:00Z,00000200,00000000,0000.93,0000.23,0000.40,0000.45,0000.40,0000.39,0000.34,0000.33,0000.39,20.1,26.4,06.6,04.5,0664.9,31.2
2021-07-05T22:41:00Z,00000200,00000000,0000.24,0000.21,-000.19,0000.77,0000.11,-000.36,-000.29,-000.16,-000.25,20.1,26.4,06.6,04.5,0665.0,31.2
2021-07-05T22:42:00Z,00000200,00000000,0000.34,0000.42,0000.01,0000.10,0000.15,-000.03,0000.37,0000.03,0000.09,20.1,26.4,06.7,04.5,0664.9,31.2
2021-07-05T22:43:00Z,00000200,00000000,0000.73,-000.08,-000.01,0000.04,0000.03,-000.11,-000.26,0000.46,0000.17,20.1,26.4,06.7,04.6,0665.0,31.3
2021-07-05T22:44:00Z,00000200,00000000,0000.20,0000.19,0000.06,0000.17,-000.23,0000.18,-000.04,-000.36,-000.28,20.1,26.3,06.6,04.5,0664.9,31.2
2021-07-05T22:45:00Z,00000200,00000000,0000.45,0000.01,0000.25,0000.79,0000.01,0000.17,0000.28,0000.00,0000.47,20.1,26.3,06.6,04.5,0665.0,31.2
2021-07-05T22:46:00Z,00000200,00000000,0000.52,0000.16,0000.17,-000.06,0000.24,0000.21,-000.29,-000.26,-000.19,20.0,26.3,06.6,04.5,0665.0,31.2
2021-07-05T22:47:00Z,00000200,00000000,0000.26,0000.19,-000.19,0000.20,-000.06,-000.15,-000.13,0000.42,0000.02,20.0,26.3,06.6,04.5,0665.0,31.2
2021-07-05T22:48:00Z,00000200,00000000,0000.78,0000.31,0000.19,0000.46,0000.16,-000.04,0000.27,-000.14,0000.27,20.0,26.3,06.7,04.6,0665.0,31.2
2021-07-05T22:49:00Z,00000200,00000000,0001.24,0000.12,0000.20,0000.21,0000.15,0000.02,0000.05,-000.12,-000.08,20.0,26.3,06.7,04.6,0665.0,31.2
2021-07-05T22:50:00Z,00000200,00000000,0000.54,-000.10,0000.12,0000.33,-000.08,-000.05,-000.03,-000.02,-000.26,20.0,26.3,06.7,04.6,0665.0,31.2
2021-07-05T22:51:00Z,00000200,00000000,0000.38,0000.26,0000.23,0000.21,0000.43,0000.17,0000.01,-000.03,0000.03,20.0,26.3,06.7,04.6,0665.0,31.2
2021-07-05T22:52:00Z,00000200,00000000,-000.42,-000.10,-000.06,0000.38,0000.09,-000.01,-000.09,0000.07,-000.06,20.0,26.3,06.8,04.6,0665.0,31.2
2021-07-05T22:53:00Z,00000200,00000000,0000.31,-000.09,-000.30,0000.27,-000.01,-000.10,0000.06,0000.14,0000.20,20.0,26.3,06.9,04.7,0665.0,31.2
2021-07-05T22:54:00Z,00000200,00000000,0001.14,0000.13,-000.32,-000.10,0000.27,-000.23,-000.10,0000.56,-000.21,20.0,26.3,06.8,04.7,0665.0,31.3
2021-07-05T22:55:00Z,00000200,00000000,0000.17,0000.23,0000.20,0000.55,0000.14,0000.26,0000.21,-000.75,0000.30,20.0,26.3,06.8,04.6,0665.0,31.2
2021-07-05T22:56:00Z,00000200,00000000,0001.03,-000.07,0000.27,-000.38,0000.35,0000.21,0000.05,0000.19,-000.45,20.0,26.3,06.7,04.6,0665.0,31.2
2021-07-05T22:57:00Z,00000200,40000000,,,,,,,-000.25,-000.08,0000.55,20.0,26.3,06.7,04.6,0665.0,31.2
2021-07-05T22:58:00Z,00000200,60000000,,,,,,,0000.19,0000.26,-000.25,19.8,26.4,06.7,04.4,0664.0,31.2
2021-07-05T22:59:00Z,00000200,20000000,,,,,,,-000.08,-000.57,0000.00,19.8,26.5,06.6,04.4,0664.0,31.2
